Glencoe, MN

2:27 AM CST on November 21, 2017 (GMT -0600)
Glencoe Municipal

Weather History for KGYL - April, 2014

Change the Weather History Date:

Wednesday, April 9, 2014

  Actual Average (KHCD) Record (KHCD)
Temperature  
Mean Temperature 51 °F -  
Max Temperature 69 °F 52 °F 81 °F (1977)
Min Temperature 33 °F 31 °F 8 °F (1997)
Degree Days  
Heating Degree Days 14    
Growing Degree Days 1 (Base 50)    
Moisture  
Dew Point 36 °F    
Average Humidity 58    
Maximum Humidity 84    
Minimum Humidity 39    
Precipitation  
Precipitation 0.00 in - - ()
Sea Level Pressure  
Sea Level Pressure 29.71 in    
Wind  
Wind Speed 8 mph (South)    
Max Wind Speed 21 mph    
Max Gust Speed 26 mph    
Visibility 10 miles    
Events      
Averages and records for this station are not official NWS values.
T = Trace of Precipitation, MM = Missing Value Source: NWS Daily Summary

Daily Weather History Graph

Daily Weather History Graph

Search for Another Location

Airport or City:

Trip Planner

Search our weather history database for the weather conditions in past years. The results will help you decide how hot, cold, wet, or windy it might be!

Date:

Astronomy

Apr. 09, 2014 Rise Set
Actual Time 6:42 AM CDT 7:53 PM CDT
Civil Twilight 6:12 AM CDT 8:24 PM CDT
Nautical Twilight 5:36 AM CDT 9:00 PM CDT
Astronomical Twilight 4:58 AM CDT 9:38 PM CDT
Moon 2:30 PM CDT (4/9) 3:45 AM CDT (4/9)
Length of Visible Light 14h 11m
Length of Day
13h 11m
Waxing Gibbous, 72% of the Moon is Illuminated
Apr 9
Waxing Gibbous
Apr 15
Full
Apr 22
Last Quarter
Apr 29
New
May 6
First Quarter

Hourly Weather History & Observations

Time (CDT) Temp. Windchill Dew Point Humidity Pressure Visibility Wind Dir Wind Speed Gust Speed Precip Events Conditions
12:12 AM 36.1 °F 33.5 °F 29.5 °F 77% 29.96 in 10.0 mi South 3.5 mph - N/A   Clear
12:33 AM 35.2 °F - 29.3 °F 79% 29.96 in 10.0 mi Calm Calm - N/A   Clear
12:53 AM 34.2 °F - 29.8 °F 84% 29.96 in 10.0 mi Calm Calm - N/A   Clear
1:13 AM 34.9 °F 32.0 °F 29.1 °F 79% 29.95 in 10.0 mi SSW 3.5 mph - N/A   Clear
1:33 AM 34.7 °F - 29.3 °F 81% 29.95 in 10.0 mi Calm Calm - N/A   Clear
1:52 AM 35.4 °F - 29.8 °F 80% 29.95 in 10.0 mi Calm Calm - N/A   Clear
2:13 AM 34.7 °F - 29.3 °F 81% 29.95 in 10.0 mi Calm Calm - N/A   Clear
2:33 AM 33.3 °F 30.2 °F 28.8 °F 84% 29.94 in 10.0 mi South 3.5 mph - N/A   Scattered Clouds
2:53 AM 36.1 °F 31.4 °F 29.8 °F 78% 29.93 in 10.0 mi South 5.8 mph - N/A   Mostly Cloudy
3:13 AM 37.4 °F 31.4 °F 29.7 °F 74% 29.92 in 10.0 mi South 8.1 mph - N/A   Scattered Clouds
3:32 AM 36.9 °F 31.4 °F 29.3 °F 74% 29.92 in 10.0 mi South 6.9 mph - N/A   Clear
3:53 AM 36.1 °F 30.6 °F 29.3 °F 76% 29.91 in 10.0 mi South 6.9 mph - N/A   Clear
4:12 AM 36.5 °F 31.0 °F 29.1 °F 75% 29.91 in 10.0 mi South 6.9 mph - N/A   Clear
4:33 AM 36.5 °F 31.0 °F 29.1 °F 75% 29.91 in 10.0 mi South 6.9 mph - N/A   Clear
4:52 AM 36.7 °F 31.2 °F 29.1 °F 74% 29.91 in 10.0 mi South 6.9 mph - N/A   Scattered Clouds
5:13 AM 37.0 °F 31.0 °F 29.1 °F 73% 29.90 in 10.0 mi South 8.1 mph - N/A   Mostly Cloudy
5:33 AM 37.4 °F 32.8 °F 29.1 °F 72% 29.89 in 10.0 mi South 5.8 mph - N/A   Overcast
5:53 AM 37.6 °F 31.6 °F 29.1 °F 72% 29.88 in 10.0 mi South 8.1 mph - N/A   Overcast
6:12 AM 38.1 °F 32.3 °F 29.1 °F 70% 29.87 in 10.0 mi South 8.1 mph - N/A   Overcast
6:33 AM 38.3 °F 33.9 °F 29.1 °F 70% 29.86 in 10.0 mi South 5.8 mph - N/A   Overcast
6:53 AM 38.3 °F 32.5 °F 28.9 °F 69% 29.85 in 10.0 mi South 8.1 mph - N/A   Overcast
7:13 AM 37.8 °F 31.8 °F 28.9 °F 71% 29.84 in 10.0 mi South 8.1 mph - N/A   Mostly Cloudy
7:33 AM 37.9 °F 32.1 °F 28.9 °F 70% 29.83 in 10.0 mi South 8.1 mph - N/A   Scattered Clouds
7:53 AM 39.2 °F 32.5 °F 28.8 °F 66% 29.82 in 10.0 mi South 10.4 mph 16.1 mph N/A   Clear
8:13 AM 40.5 °F 33.6 °F 29.3 °F 64% 29.81 in 10.0 mi South 11.5 mph 16.1 mph N/A   Clear
8:33 AM 41.9 °F 35.0 °F 29.3 °F 61% 29.80 in 10.0 mi South 12.7 mph 21.9 mph N/A   Scattered Clouds
8:52 AM 43.0 °F 36.0 °F 29.3 °F 59% 29.79 in 10.0 mi South 13.8 mph 20.7 mph N/A   Scattered Clouds
9:13 AM 44.4 °F 37.9 °F 30.4 °F 58% 29.78 in 10.0 mi South 13.8 mph 20.7 mph N/A   Clear
9:33 AM 46.6 °F - 31.1 °F 55% 29.77 in 10.0 mi South 13.8 mph 20.7 mph N/A   Clear
9:53 AM 47.8 °F - 31.1 °F 52% 29.76 in 10.0 mi South 12.7 mph 21.9 mph N/A   Clear
10:13 AM 49.1 °F - 31.5 °F 51% 29.75 in 10.0 mi South 11.5 mph 21.9 mph N/A   Clear
10:53 AM 52.2 °F - 31.8 °F 46% 29.74 in 10.0 mi South 18.4 mph 24.2 mph N/A   Clear
11:13 AM 52.9 °F - 32.2 °F 45% 29.73 in 10.0 mi South 13.8 mph 24.2 mph N/A   Clear
11:31 AM 54.3 °F - 32.9 °F 44% 29.72 in 10.0 mi South 16.1 mph 21.9 mph N/A   Clear
11:53 AM 55.9 °F - 33.8 °F 43% 29.70 in 10.0 mi SSW 20.7 mph 25.3 mph N/A   Clear
12:14 PM 58.3 °F - 36.3 °F 44% 29.69 in - South 19.6 mph 25.3 mph N/A   Clear
12:34 PM - - - N/A% - - North - - N/A   Unknown
12:54 PM 60.4 °F - 36.9 °F 42% 29.68 in 10.0 mi South 16.1 mph 24.2 mph N/A   Clear
1:14 PM 61.2 °F - 37.9 °F 42% 29.68 in 10.0 mi SSW 16.1 mph 23.0 mph N/A   Clear
1:34 PM 61.7 °F - 38.7 °F 43% 29.67 in 10.0 mi SSW 13.8 mph - N/A   Clear
1:54 PM 63.0 °F - 38.8 °F 41% 29.65 in 10.0 mi SSW 13.8 mph 24.2 mph N/A   Clear
2:14 PM 63.7 °F - 39.6 °F 41% 29.64 in 10.0 mi SSW 18.4 mph 26.5 mph N/A   Clear
2:34 PM 64.8 °F - 41.0 °F 42% 29.63 in 10.0 mi South 16.1 mph 24.2 mph N/A   Clear
2:54 PM 65.8 °F - 41.4 °F 41% 29.62 in 10.0 mi South 13.8 mph 21.9 mph N/A   Clear
3:14 PM 66.4 °F - 41.2 °F 40% 29.61 in 10.0 mi South 16.1 mph 23.0 mph N/A   Clear
3:34 PM 66.7 °F - 41.7 °F 40% 29.60 in 10.0 mi South 15.0 mph 20.7 mph N/A   Clear
3:54 PM 67.6 °F - 43.5 °F 42% 29.59 in 10.0 mi South 15.0 mph 23.0 mph N/A   Clear
4:14 PM 68.2 °F - 43.7 °F 41% 29.58 in 10.0 mi South 12.7 mph 20.7 mph N/A   Clear
4:33 PM 68.9 °F - 43.2 °F 39% 29.58 in 10.0 mi SSW 15.0 mph 20.7 mph N/A   Clear
4:54 PM 69.3 °F - 43.7 °F 40% 29.57 in 10.0 mi SSW 16.1 mph 19.6 mph N/A   Clear
5:14 PM 69.3 °F - 45.0 °F 42% 29.56 in 10.0 mi South 13.8 mph 18.4 mph N/A   Clear
5:33 PM 68.9 °F - 45.5 °F 43% 29.56 in 10.0 mi South 11.5 mph 18.4 mph N/A   Clear
5:54 PM 68.4 °F - 45.3 °F 44% 29.55 in 10.0 mi South 6.9 mph - N/A   Clear
6:14 PM 69.8 °F - 45.0 °F 41% 29.55 in 10.0 mi South 10.4 mph - N/A   Clear
6:34 PM 69.4 °F - 45.5 °F 42% 29.54 in 10.0 mi South 8.1 mph - N/A   Clear
6:54 PM 69.1 °F - 45.9 °F 43% 29.54 in 10.0 mi South 6.9 mph - N/A   Clear
7:14 PM 68.0 °F - 45.7 °F 45% 29.53 in 10.0 mi South 8.1 mph - N/A   Clear
7:34 PM 65.8 °F - 45.9 °F 48% 29.52 in 10.0 mi South 6.9 mph - N/A   Clear
7:54 PM 63.7 °F - 46.2 °F 53% 29.51 in 10.0 mi South 8.1 mph - N/A   Clear
8:14 PM 62.1 °F - 46.4 °F 56% 29.50 in 10.0 mi South 8.1 mph - N/A   Clear
8:33 PM 61.5 °F - 45.9 °F 56% 29.50 in 10.0 mi South 9.2 mph - N/A   Clear
8:52 PM 61.5 °F - 45.0 °F 55% 29.49 in 10.0 mi South 10.4 mph - N/A   Clear
9:14 PM 59.9 °F - 44.6 °F 57% 29.50 in 10.0 mi South 9.2 mph - N/A   Clear
9:34 PM 59.4 °F - 44.2 °F 57% 29.50 in 10.0 mi South 11.5 mph - N/A   Scattered Clouds
9:50 PM 60.1 °F - 43.3 °F 54% 29.51 in 10.0 mi SSW 9.2 mph - N/A   Scattered Clouds
10:14 PM 59.2 °F - 43.9 °F 57% 29.53 in 10.0 mi WNW 13.8 mph - N/A   Mostly Cloudy
10:34 PM 58.6 °F - 44.4 °F 59% 29.52 in 10.0 mi WSW 3.5 mph - N/A   Mostly Cloudy
10:53 PM 58.6 °F - 43.3 °F 57% 29.51 in 10.0 mi SSW 5.8 mph - N/A   Scattered Clouds
11:13 PM 59.7 °F - 42.8 °F 54% 29.53 in 10.0 mi WSW 6.9 mph - N/A   Overcast
11:34 PM 60.1 °F - 42.8 °F 53% 29.55 in 10.0 mi West 11.5 mph - N/A   Overcast
11:53 PM 60.1 °F - 43.0 °F 53% 29.56 in 10.0 mi WNW 13.8 mph 17.3 mph N/A   Mostly Cloudy